Location: Milano
(45.4670°N, 9.2000°E)
Time: 08:24:33
(UTC+02:00)

X-37B - Pass Details

Date: 08 August 2021
Orbit: 381 x 393 km, 45.0° (Epoch: 29 August)

Event Time Altitude Azimuth Distance (km) Brightness Sun altitude
Exits shadow 03:37:26 28° 94° (E) 752 2.3 -21.9°
Drops below altitude 10° 03:39:06 10° 85° (E) 1,397 3.9 -21.7°
Sets 03:41:11 0° 83° (E) 2,251 5.1 -21.5°
